Home > Weather > Borken > Past weeks

Flag for Germany Past Weather in Borken, North Rhine-Westphalia, Germany — Yesterday and Last 2 Weeks

Now
61 °F

Fog.


Feels Like: 61 °F
Forecast: 56 / 66 °F
Wind: 1 mph from Southwest

Location: Twenthe

Current Time: Jul 31, 2016 at 12:50:27 AM

Latest Report: Jul 30, 2016 at 11:00 PM


Visibility: 2 mi

Pressure: 29.91 "Hg

Humidity: 100%

Dew Point: 61 °F

Location of BorkenLocation

Past Weather in Borken — Graph

°F

Borken Temperature Yesterday

Maximum temperature yesterday: 69 °F (at 2:00 PM)
Minimum temperature yesterday: 58 °F (at 6:00 AM)
Average temperature yesterday: 63 °F

High & Low Weather Summary for the Past Weeks

 TemperatureHumidityPressure
High92 °F (Jul 20, 4:00 PM)100% (Jul 18, 2:00 AM)30.26 "Hg (Jul 18, 2:00 AM)
Low51 °F (Jul 19, 5:00 AM)23% (Jul 19, 4:00 PM)29.83 "Hg (Jul 20, 7:00 PM)
Average68 °F80%30.05 "Hg
* Reported Jul 15 11:00 PM — Jul 30 11:00 PM, Borken, Weather by CustomWeather, © 2016

Note: Actual official high and low records may vary slightly from our data, if they occured in-between our weather recording intervals... More about our weather records

Advertising

Borken Weather History for the Previous 24 Hours

Scroll right to see more
 ConditionsComfort  
Time TempWeatherWind HumidityBarometerVisibility
11:00 PM
Sat, Jul 30
61 °FFog.1 mph100%29.91 "Hg2 mi
10:00 PM62 °FOvercast.1 mph99%29.91 "Hg1 mi
9:00 PM63 °FLight rain. Overcast.2 mph98%29.89 "Hg2 mi
8:00 PM64 °FLight rain. Overcast.2 mph93%29.91 "Hg5 mi
7:00 PM65 °FRain showers. Overcast.1 mph93%29.91 "Hg4 mi
5:00 PM65 °FOvercast.1 mph89%29.92 "Hg11 mi
4:00 PM65 °FOvercast.1 mph90%29.91 "Hg18 mi
3:00 PM63 °FRain showers. Overcast.3 mph92%29.92 "Hg11 mi
2:00 PM69 °FOvercast.5 mph76%29.91 "Hg14 mi
1:00 PM66 °FOvercast.6 mph82%29.90 "Hg7 mi
12:00 PM67 °FLow clouds.3 mph85%29.90 "Hg6 mi
11:00 AM62 °FDrizzle. Low clouds.3 mph96%29.90 "Hg2 mi
10:00 AM62 °FLow clouds.5 mph91%29.89 "Hg7 mi
9:00 AM61 °FOvercast.5 mph87%29.88 "Hg15 mi
8:00 AM60 °FOvercast.5 mph89%29.87 "Hg13 mi
7:00 AM60 °FOvercast.3 mph91%29.87 "Hg11 mi
6:00 AM58 °FSunny.3 mph93%29.87 "Hg9 mi
5:00 AM59 °FPassing clouds.3 mph94%29.86 "Hg7 mi
4:00 AM60 °FPassing clouds.3 mph94%29.86 "Hg7 mi
3:00 AM62 °FOvercast.3 mph89%29.87 "Hg11 mi
2:00 AM62 °FOvercast.3 mph88%29.87 "Hg14 mi
1:00 AM63 °FOvercast.3 mph85%29.88 "Hg17 mi
12:00 AM65 °FOvercast.3 mph81%29.88 "Hg22 mi
Weather by CustomWeather, © 2016

See weather overviewHow to use our weather pages